Weather History for KEED - February, 2013

Change the Weather History Date:

Wednesday, February 20, 2013

  Actual Average Record
Temperature  
Mean Temperature 48 °F -  
Max Temperature 54 °F 71 °F 86 °F (1972)
Min Temperature 42 °F 47 °F 33 °F (1955)
Degree Days  
Heating Degree Days 17    
Moisture  
Dew Point 38 °F    
Average Humidity 71    
Maximum Humidity 83    
Minimum Humidity 47    
Precipitation  
Precipitation 0.08 in - - ()
Sea Level Pressure  
Sea Level Pressure 29.70 in    
Wind  
Wind Speed 7 mph (WSW)    
Max Wind Speed 18 mph    
Max Gust Speed -    
Visibility 10 miles    
Events Rain    
Averages and records for this station are not official NWS values.
T = Trace of Precipitation, MM = Missing Value Source: NWS Daily Summary

Daily Weather History Graph

Daily Weather History Graph

Search for Another Location

Airport or City:

Trip Planner

Search our weather history database for the weather conditions in past years. The results will help you decide how hot, cold, wet, or windy it might be!

Date:

Astronomy

Feb. 20, 2013 Rise Set
Actual Time 6:18 AM PST 5:26 PM PST
Civil Twilight 5:52 AM PST 5:52 PM PST
Nautical Twilight 5:23 AM PST 6:21 PM PST
Astronomical Twilight 4:53 AM PST 6:50 PM PST
Moon 12:58 PM PST (2/20) 2:34 AM PST (2/20)
Length of Visible Light 11h 59m
Length of Day
11h 08m
Waxing Gibbous, 77% of the Moon is Illuminated
Feb 20
Waxing Gibbous
Feb 25
Full
Mar 4
Last Quarter
Mar 11
New
Mar 19
First Quarter

Hourly Weather History & Observations

Time (PST) Temp. Windchill Dew Point Humidity Pressure Visibility Wind Dir Wind Speed Gust Speed Precip Events Conditions
12:56 AM 54.0 °F - 34.0 °F 47% 29.55 in 10.0 mi NNE 9.2 mph - 0.00 in   Overcast
1:56 AM 52.0 °F - 37.0 °F 57% 29.55 in 10.0 mi ENE 6.9 mph - N/A   Overcast
2:56 AM 51.1 °F - 39.0 °F 63% 29.54 in 10.0 mi Calm Calm - N/A   Overcast
3:56 AM 48.9 °F - 36.0 °F 61% 29.55 in 10.0 mi WSW 11.5 mph - 0.00 in   Overcast
4:56 AM 48.9 °F - 37.0 °F 64% 29.56 in 10.0 mi SSW 6.9 mph - N/A   Overcast
5:56 AM 48.9 °F - 37.9 °F 66% 29.57 in 10.0 mi SSW 5.8 mph - 0.00 in   Overcast
6:26 AM 44.6 °F 38.1 °F 37.4 °F 76% 29.62 in 8.0 mi West 13.8 mph - 0.01 in Rain Light Rain
6:56 AM 42.1 °F 33.6 °F 37.0 °F 82% 29.60 in 10.0 mi WNW 18.4 mph - 0.03 in Rain Light Rain
7:06 AM 42.8 °F 35.1 °F 37.4 °F 81% 29.63 in 10.0 mi WNW 16.1 mph - 0.00 in Rain Light Rain
7:56 AM 43.0 °F 38.2 °F 37.9 °F 82% 29.64 in 10.0 mi WSW 8.1 mph - 0.02 in Rain Light Rain
8:08 AM 42.8 °F 38.0 °F 37.4 °F 81% 29.67 in 10.0 mi WSW 8.1 mph - 0.01 in Rain Light Rain
8:56 AM 44.1 °F 38.6 °F 36.0 °F 73% 29.67 in 10.0 mi West 10.4 mph - 0.03 in   Overcast
9:56 AM 45.0 °F 38.9 °F 37.0 °F 74% 29.69 in 10.0 mi WSW 12.7 mph - 0.00 in   Overcast
10:48 AM 46.4 °F 42.4 °F 35.6 °F 66% 29.72 in 10.0 mi WSW 8.1 mph - N/A   Overcast
11:56 AM 46.9 °F - 37.9 °F 71% 29.70 in 10.0 mi West 3.5 mph - 0.00 in Rain Light Rain
12:04 PM 46.4 °F 45.2 °F 37.4 °F 71% 29.73 in 10.0 mi WSW 3.5 mph - 0.00 in Rain Light Rain
12:14 PM 46.4 °F 43.5 °F 39.2 °F 76% 29.73 in 10.0 mi WNW 5.8 mph - 0.00 in Rain Light Rain
12:41 PM 46.4 °F 43.5 °F 37.4 °F 71% 29.74 in 10.0 mi West 5.8 mph - 0.00 in Rain Light Rain
1:56 PM 50.0 °F - 37.0 °F 61% 29.73 in 10.0 mi SSW 3.5 mph - N/A   Overcast
2:56 PM 50.0 °F - 37.0 °F 61% 29.74 in 10.0 mi Calm Calm - N/A   Overcast
3:56 PM 50.0 °F - 39.0 °F 66% 29.75 in 10.0 mi SSW 5.8 mph - N/A   Overcast
4:56 PM 50.0 °F - 37.9 °F 63% 29.76 in 10.0 mi ESE 9.2 mph - N/A   Mostly Cloudy
5:56 PM 48.9 °F - 39.0 °F 69% 29.78 in 10.0 mi ESE 4.6 mph - N/A   Overcast
6:56 PM 48.0 °F - 39.0 °F 71% 29.81 in 10.0 mi Calm Calm - N/A   Overcast
7:56 PM 48.0 °F - 39.9 °F 74% 29.84 in 10.0 mi Calm Calm - N/A   Overcast
8:56 PM 46.9 °F - 42.1 °F 83% 29.86 in 10.0 mi Calm Calm - N/A   Overcast
9:56 PM 46.0 °F 44.8 °F 41.0 °F 83% 29.88 in 10.0 mi NW 3.5 mph - N/A   Overcast
10:56 PM 46.0 °F - 39.0 °F 76% 29.88 in 10.0 mi Calm Calm - N/A   Mostly Cloudy
11:56 PM 44.1 °F 40.8 °F 37.9 °F 79% 29.89 in 10.0 mi WSW 5.8 mph - N/A   Clear